User: anonymous   Login
Location: Trebic
(49.2170°N, 15.8830°E)
Time: 21:38:32
(UTC+02:00)
Language:

SR - Orbit

View from above orbital plane
View from above orbital plane
View from above satellite
View from above satellite

Ground track
Ground track

The orbit data is extracted from the following two-line orbital elements,

1    46U 60007B   19202.45572899 -.00000094  00000-0  45677-5 0  9994
2    46  66.6887 223.5716 0208003  16.5815 344.1959 14.49233450 90995
Epoch (UTC): 21 July 2019 10:56:14
Eccentricity: 0.0208003
inclination: 66.6887°
perigee height: 580 km
apogee height: 876 km
right ascension of ascending node: 223.5716°
argument of perigee: 16.5815°
revolutions per day: 14.49233450
mean anomaly at epoch: 344.1959°
orbit number at epoch: 9099

The dashed part of the orbit path shows where the satellite is in the earth's shadow,  

DLR